Change the Weather History Date:

Saturday, August 17, 2013

  Actual Average Record
Temperature  
Mean Temperature 83 °F -  
Max Temperature 96 °F 89 °F 100 °F (1986)
Min Temperature 71 °F 57 °F 42 °F (1960)
Cooling Degree Days 18    
Growing Degree Days 33 (Base 50)    
Moisture  
Dew Point 40 °F    
Average Humidity 24    
Maximum Humidity 32    
Minimum Humidity 12    
Precipitation  
Precipitation 0.00 in - - ()
Sea Level Pressure  
Sea Level Pressure 29.88 in    
Wind  
Wind Speed 10 mph (South)    
Max Wind Speed 25 mph    
Max Gust Speed 33 mph    
Visibility 9 miles    
Events      
Averages and records for this station are not official NWS values.
T = Trace of Precipitation, MM = Missing Value Source: NWS Daily Summary

Daily Weather History Graph

Daily Weather History Graph

Search for Another Location

Airport or City:

Trip Planner

Search our weather history database for the weather conditions in past years. The results will help you decide how hot, cold, wet, or windy it might be!

Date:

Astronomy

Aug. 17, 2013 Rise Set
Actual Time 6:39 AM MDT 8:23 PM MDT
Civil Twilight 6:10 AM MDT 8:52 PM MDT
Nautical Twilight 5:34 AM MDT 9:28 PM MDT
Astronomical Twilight 4:56 AM MDT 10:06 PM MDT
Moon 5:43 PM MDT (8/17) 2:45 AM MDT (8/17)
Length of Visible Light 14h 42m
Length of Day
13h 43m
Waxing Gibbous, 85% of the Moon is Illuminated
Aug 17
Waxing Gibbous
Aug 20
Full
Aug 28
Last Quarter
Sep 5
New
Sep 12
First Quarter

Hourly Weather History & Observations

Time (MDT) Temp. Dew Point Humidity Pressure Visibility Wind Dir Wind Speed Gust Speed Precip Events Conditions
12:53 AM 75.0 °F 37.0 °F 25% 29.85 in 10.0 mi South 9.2 mph - N/A   Clear
1:53 AM 73.9 °F 36.0 °F 25% 29.85 in 10.0 mi South 8.1 mph - N/A   Clear
2:53 AM 73.9 °F 36.0 °F 25% 29.84 in 10.0 mi SSW 3.5 mph - N/A   Clear
3:53 AM 72.0 °F 36.0 °F 27% 29.84 in 10.0 mi South 8.1 mph - N/A   Clear
4:53 AM 73.0 °F 36.0 °F 26% 29.85 in 10.0 mi SW 5.8 mph - N/A   Clear
5:53 AM 71.1 °F 36.0 °F 28% 29.86 in 10.0 mi Variable 3.5 mph - N/A   Clear
6:53 AM 71.1 °F 36.0 °F 28% 29.87 in 10.0 mi South 8.1 mph - N/A   Clear
7:53 AM 73.0 °F 37.0 °F 27% 29.89 in 10.0 mi SSE 11.5 mph - N/A   Clear
8:53 AM 73.9 °F 39.0 °F 28% 29.91 in 10.0 mi South 9.2 mph - N/A   Clear
9:53 AM 78.1 °F 41.0 °F 27% 29.92 in 10.0 mi SSE 3.5 mph - N/A   Clear
10:53 AM 84.0 °F 43.0 °F 24% 29.91 in 10.0 mi SE 3.5 mph - N/A   Clear
11:53 AM 90.0 °F 46.9 °F 23% 29.90 in 10.0 mi WSW 8.1 mph - N/A   Clear
12:53 PM 91.0 °F 45.0 °F 20% 29.88 in 10.0 mi WNW 4.6 mph - N/A   Clear
1:53 PM 95.0 °F 36.0 °F 13% 29.86 in 10.0 mi West 10.4 mph 17.3 mph N/A   Clear
2:53 PM 95.0 °F 36.0 °F 13% 29.84 in 10.0 mi WSW 10.4 mph - N/A   Clear
3:53 PM 95.0 °F 34.0 °F 12% 29.82 in 10.0 mi WNW 6.9 mph - N/A   Clear
4:53 PM 93.0 °F 37.0 °F 14% 29.83 in 10.0 mi South 21.9 mph 28.8 mph N/A   Clear
5:28 PM 89.6 °F 42.8 °F 20% 30.04 in 4.0 mi South 20.7 mph 31.1 mph N/A   Haze
5:49 PM 87.8 °F 44.6 °F 22% 30.04 in 4.0 mi South 21.9 mph 33.4 mph N/A   Haze
5:53 PM 88.0 °F 44.1 °F 22% 29.84 in 4.0 mi South 25.3 mph 33.4 mph N/A   Haze
6:28 PM 87.8 °F 46.4 °F 24% 30.03 in 10.0 mi SSE 18.4 mph 25.3 mph N/A   Scattered Clouds
6:53 PM 86.0 °F 46.0 °F 25% 29.84 in 10.0 mi SSE 18.4 mph - N/A   Clear
7:53 PM 82.9 °F 45.0 °F 26% 29.84 in 10.0 mi SSE 10.4 mph - N/A   Clear
8:53 PM 81.0 °F 43.0 °F 26% 29.85 in 10.0 mi South 10.4 mph - N/A   Clear
9:53 PM 79.0 °F 43.0 °F 28% 29.87 in 10.0 mi South 13.8 mph - N/A   Clear
10:53 PM 77.0 °F 44.1 °F 31% 29.86 in 10.0 mi SSE 9.2 mph - N/A   Clear
11:53 PM 75.9 °F 44.1 °F 32% 29.87 in 10.0 mi SSE 8.1 mph - N/A   Clear